Weather History for KMQE - December, 2013

Change the Weather History Date:

Tuesday, December 31, 2013

  Actual Average (KBOS) Record (KBOS)
Temperature  
Mean Temperature 16 °F 30 °F  
Max Temperature 23 °F 37 °F 65 °F (1932)
Min Temperature 10 °F 24 °F -8 °F (1917)
Degree Days  
Heating Degree Days 48 35  
Month to date heating degree days 937  
Since 1 July heating degree days 1994  
Cooling Degree Days 0 0  
Month to date cooling degree days 0  
Year to date cooling degree days 747  
Moisture  
Dew Point 4 °F    
Average Humidity 57    
Maximum Humidity 71    
Minimum Humidity 44    
Precipitation  
Precipitation 0.00 in 0.10 in 1.68 in (1906)
Month to date precipitation 3.78  
Year to date precipitation 43.77  
Sea Level Pressure  
Sea Level Pressure 30.13 in    
Wind  
Wind Speed 9 mph (WNW)    
Max Wind Speed 16 mph    
Max Gust Speed 25 mph    
T = Trace of Precipitation, MM = Missing Value Source: NWS Daily Summary

Daily Weather History Graph

Daily Weather History Graph

Search for Another Location

Airport or City:

Trip Planner

Search our weather history database for the weather conditions in past years. The results will help you decide how hot, cold, wet, or windy it might be!

Date:

Astronomy

Dec. 31, 2013 Rise Set
Actual Time 7:13 AM EST 4:22 PM EST
Civil Twilight 6:41 AM EST 4:54 PM EST
Nautical Twilight 6:06 AM EST 5:29 PM EST
Astronomical Twilight 5:32 AM EST 6:03 PM EST
Moon 6:02 AM EST (12/31) 3:55 PM EST (12/31)
Length of Visible Light 10h 12m
Length of Day
9h 09m
Waning Crescent, 1% of the Moon is Illuminated
Dec 31
Waning Crescent
Jan 1
New
Jan 7
First Quarter
Jan 15
Full
Jan 24
Last Quarter

Hourly Weather History & Observations

Time (EST) Temp. Windchill Dew Point Humidity Pressure Visibility Wind Dir Wind Speed Gust Speed Precip Events Conditions
12:54 AM 15.1 °F 2.5 °F 7.0 °F 70% 30.15 in - NNW 10.4 mph - N/A   Unknown
1:54 AM 14.0 °F 2.9 °F 6.1 °F 71% 30.16 in - North 8.1 mph - N/A   Unknown
2:54 AM 12.9 °F 2.6 °F 1.9 °F 62% 30.16 in - NNW 6.9 mph - N/A   Unknown
3:54 AM 10.9 °F 1.4 °F 1.9 °F 67% 30.16 in - North 5.8 mph - N/A   Unknown
4:54 AM 12.9 °F 1.6 °F -2.0 °F 51% 30.15 in - NNW 8.1 mph - N/A   Unknown
5:54 AM 12.0 °F -0.4 °F -4.0 °F 49% 30.14 in - NNW 9.2 mph - N/A   Unknown
6:54 AM 12.0 °F 0.5 °F -2.9 °F 51% 30.14 in - NW 8.1 mph - N/A   Unknown
7:54 AM 12.0 °F 1.5 °F -2.9 °F 51% 30.14 in - NNW 6.9 mph - N/A   Unknown
8:54 AM 12.9 °F 2.6 °F -2.0 °F 51% 30.15 in - NW 6.9 mph - N/A   Unknown
9:54 AM 15.1 °F 6.4 °F -0.0 °F 51% 30.14 in - WNW 5.8 mph - N/A   Unknown
10:54 AM 17.1 °F 11.7 °F 1.0 °F 50% 30.11 in - Variable 3.5 mph - N/A   Unknown
11:54 AM 19.0 °F 11.1 °F 3.0 °F 50% 30.07 in - WNW 5.8 mph - N/A   Unknown
12:54 PM 19.9 °F 9.3 °F 1.0 °F 44% 30.06 in - West 9.2 mph - N/A   Unknown
1:54 PM 21.9 °F 12.5 °F 5.0 °F 48% 30.05 in - West 8.1 mph - N/A   Unknown
2:54 PM 23.0 °F 15.8 °F 5.0 °F 46% 30.05 in - Variable 5.8 mph - N/A   Unknown
3:54 PM 23.0 °F 13.1 °F 5.0 °F 46% 30.06 in - West 9.2 mph 18.4 mph N/A   Unknown
4:54 PM 21.9 °F 11.7 °F 7.0 °F 53% 30.09 in - West 9.2 mph - N/A   Unknown
5:54 PM 21.9 °F 11.7 °F 8.1 °F 55% 30.12 in - SW 9.2 mph - N/A   Unknown
6:54 PM 21.0 °F 10.6 °F 10.0 °F 63% 30.11 in - SW 9.2 mph - N/A   Unknown
7:54 PM 21.0 °F 9.3 °F 10.9 °F 65% 30.12 in - SW 11.5 mph - N/A   Unknown
8:54 PM 21.0 °F 7.6 °F 10.9 °F 65% 30.15 in - West 15.0 mph 25.3 mph N/A   Unknown
9:54 PM 19.9 °F 9.3 °F 12.0 °F 71% 30.16 in - WSW 9.2 mph - N/A   Unknown
10:54 PM 19.9 °F 5.7 °F 10.9 °F 68% 30.17 in - West 16.1 mph - N/A   Unknown
11:54 PM 19.0 °F 5.0 °F 10.0 °F 68% 30.20 in - West 15.0 mph - N/A   Unknown